Regional Weather Roundup
Issued by NWS Midland/Odessa, TX

Skip options and go directly to product.
Home | Oldest Version | Previous Version | Current Version | All | Graphics & Text | Save Text | Print | Product List | Glossary On

Skip product version selection by date and time.   
237
ASUS44 KMAF 311410
RWRMAF
MIDLAND AREA WEATHER ROUNDUP
NATIONAL WEATHER SERVICE MIDLAND TX
900 AM CDT FRI OCT 31 2014

...IN SOUTHWEST TEXAS AND SOUTHEAST NEW MEXICO...

CITY           SKY/WX    TMP DP  RH WIND       PRES   REMARKS
ALPINE         CLOUDY    57  52  85 NE9       30.43R
ANDREWS        FAIR      46  35  65 N3        30.39R
ARTESIA        NOT AVBL
BIG SPRING     SUNNY     54  34  47 NE9       30.40R
CARLSBAD       CLEAR     48  39  71 N6        30.40R
DRYDEN           N/A     67  48  50 NE10G21   30.30R
FORT STOCKTON  MOSUNNY   59  48  67 E8        30.36R
GUAD PASS      CLEAR     51  30  44 NE33G39   30.40R
HOBBS          CLEAR     46  32  57 N8        30.41R
MARFA          CLOUDY    55  52  88 NE14      30.39R
MIDLAND AIRPK  SUNNY     53  36  53 N5        30.39R
MIDLAND INTL   SUNNY     50  36  58 N6        30.38R
ODESSA         SUNNY     50  35  56 NE8       30.38R
PECOS          PTCLDY    55  41  58 N9        30.37R
PRESIDIO       FAIR      64  53  65 E6        30.29R
SEMINOLE       CLEAR     47  32  56 NE6       30.41R
SNYDER         SUNNY     50  33  53 NE12      30.39R
WINK           PTCLDY    51  36  56 N7        30.37R
$$
...OTHER STATIONS IN TEXAS...

CITY           SKY/WX    TMP DP  RH WIND       PRES   REMARKS
ABILENE        SUNNY     50  37  61 N8        30.38R
AMARILLO       CLEAR     39  32  76 N6        30.46R WCI  35
AUSTIN         PTSUNNY   59  53  80 N12       30.24R
BROWNSVILLE    SUNNY     73  71  93 CALM      30.12R FOG
CORPUS CHRISTI TSTM      70  68  93 N9        30.17R FOG
DALLAS FTW     SUNNY     56  42  59 N12       30.30R
DEL RIO        CLOUDY    72  59  63 NE9G20    30.23R
EL PASO        PTCLDY    58  46  64 E5        30.32R
HOUSTON INT    MOSUNNY   63  50  62 N9        30.17R
LUBBOCK        CLEAR     48  32  53 NE12      30.41R
SAN ANGELO     SUNNY     59  38  45 NE12      30.34R
SAN ANTONIO    CLOUDY    65  58  78 N9        30.25R
WACO           SUNNY     56  44  64 NW9       30.27R
WICHITA FALLS  NOT AVBL
$$
...OTHER LOCATIONS IN NEW MEXICO...

CITY           SKY/WX    TMP DP  RH WIND       PRES   REMARKS
ALAMAGORDO     NOT AVBL
ALBUQUERQUE    PTCLDY    52  27  38 E14       30.36R
CANNON AFB     PTCLDY    39  28  65 E7        30.39S WCI  34
CLOVIS         CLEAR     39  27  60 NE5         N/A  WCI  36
HOLLOMAN AFB   CLEAR     46  36  68 N5        30.32R
ROSWELL        CLEAR     45  35  68 W3        30.42R
RUIDOSO        CLEAR     41  32  70 SE7       30.48S WCI  36
SANTA FE       CLEAR     46  23  40 SE12      30.41F
TRUTH OR CONSE CLEAR     45  29  53 W6        30.33R
TUCUMCARI      MOCLDY    38  27  64 CALM      30.44R
$$

USA.gov is the U.S. government's official web portal to all federal, state and local government web resources and services.